| time (UTC) | temp F | wind direction | speed MPH | gust MPH | rain 1hr in | rain 24hr in | rain mn in | humidity % | barometer mb |
| 20260508113016 | 50 | 315 | 1.0 | 4.0 | 0.00 | 0.00 | 0.00 | 83 | 1014.2 |
| 20260508112036 | 47 | 0.0 | 2.0 | 0.00 | 0.00 | 0.00 | 89 | 1014.1 | |
| 20260508111016 | 45 | 0.0 | 0.0 | 0.00 | 0.00 | 0.00 | 88 | 1014.1 | |
| 20260508110016 | 44 | 0.0 | 0.0 | 0.00 | 0.00 | 0.00 | 87 | 1013.8 | |
| 20260508105016 | 43 | 0.0 | 0.0 | 0.00 | 0.00 | 0.00 | 84 | 1013.7 | |
| 20260508104017 | 44 | 0.0 | 0.0 | 0.00 | 0.00 | 0.00 | 83 | 1013.5 | |
| 20260508103016 | 44 | 0.0 | 0.0 | 0.00 | 0.00 | 0.00 | 82 | 1013.6 | |
| 20260508102016 | 45 | 0.0 | 0.0 | 0.00 | 0.00 | 0.00 | 81 | 1013.5 | |
| 20260508101016 | 45 | 0.0 | 0.0 | 0.00 | 0.00 | 0.00 | 80 | 1013.4 | |
| 20260508100016 | 46 | 0.0 | 0.0 | 0.00 | 0.00 | 0.00 | 79 | 1013.3 | |
| 20260508095036 | 47 | 0.0 | 0.0 | 0.00 | 0.00 | 0.00 | 78 | 1013.0 | |
| 20260508094017 | 48 | 0.0 | 1.0 | 0.00 | 0.00 | 0.00 | 76 | 1012.9 | |
| 20260508093116 | 48 | 0.0 | 0.0 | 0.00 | 0.00 | 0.00 | 75 | 1012.9 | |
| 20260508092016 | 49 | 0.0 | 1.0 | 0.00 | 0.00 | 0.00 | 74 | 1012.8 | |
| 20260508091016 | 49 | 0.0 | 3.0 | 0.00 | 0.00 | 0.00 | 73 | 1012.9 | |
| 20260508090016 | 50 | 0.0 | 2.0 | 0.00 | 0.00 | 0.00 | 72 | 1012.8 | |
| 20260508085016 | 50 | 0.0 | 2.0 | 0.00 | 0.00 | 0.00 | 72 | 1012.7 | |
| 20260508084036 | 51 | 315 | 1.0 | 4.0 | 0.00 | 0.00 | 0.00 | 71 | 1012.5 |
| 20260508083015 | 51 | 315 | 2.0 | 8.0 | 0.00 | 0.00 | 0.00 | 71 | 1012.4 |
| 20260508082016 | 51 | 315 | 1.0 | 5.0 | 0.00 | 0.00 | 0.00 | 71 | 1012.2 |
| 20260508081035 | 51 | 315 | 2.0 | 5.0 | 0.00 | 0.00 | 0.00 | 71 | 1011.9 |
| 20260508080016 | 52 | 315 | 3.0 | 9.0 | 0.00 | 0.00 | 0.00 | 71 | 1011.7 |
| 20260508075015 | 52 | 315 | 1.0 | 3.0 | 0.00 | 0.00 | 0.00 | 72 | 1011.5 |
| 20260508074016 | 52 | 315 | 2.0 | 5.0 | 0.00 | 0.00 | 0.00 | 72 | 1011.3 |
| 20260508073015 | 52 | 315 | 3.0 | 6.0 | 0.00 | 0.00 | 0.00 | 74 | 1011.1 |
| 20260508072015 | 52 | 315 | 2.0 | 4.0 | 0.00 | 0.00 | 0.00 | 76 | 1011.0 |
| 20260508071015 | 52 | 315 | 2.0 | 5.0 | 0.00 | 0.00 | 0.00 | 77 | 1010.8 |
| 20260508070015 | 52 | 315 | 2.0 | 6.0 | 0.00 | 0.00 | 0.00 | 79 | 1010.6 |
| 20260508065018 | 52 | 315 | 3.0 | 8.0 | 0.00 | 0.00 | 0.00 | 81 | 1010.4 |
| 20260508064018 | 52 | 315 | 3.0 | 8.0 | 0.00 | 0.00 | 0.00 | 83 | 1010.4 |
| 20260508063018 | 52 | 315 | 3.0 | 5.0 | 0.00 | 0.00 | 0.00 | 83 | 1010.1 |
| 20260508062018 | 52 | 315 | 2.0 | 5.0 | 0.00 | 0.00 | 0.00 | 83 | 1010.1 |
| 20260508061017 | 53 | 315 | 3.0 | 5.0 | 0.00 | 0.00 | 0.00 | 83 | 1010.1 |
| 20260508060057 | 53 | 315 | 2.0 | 5.0 | 0.00 | 0.00 | 0.00 | 82 | 1010.0 |
| 20260508055038 | 53 | 315 | 2.0 | 4.0 | 0.00 | 0.00 | 0.00 | 82 | 1009.9 |
| 20260508054017 | 53 | 315 | 3.0 | 8.0 | 0.00 | 0.01 | 0.00 | 82 | 1009.9 |
| 20260508053017 | 53 | 315 | 3.0 | 8.0 | 0.00 | 0.01 | 0.00 | 82 | 1009.9 |
| 20260508052037 | 53 | 315 | 2.0 | 9.0 | 0.00 | 0.01 | 0.00 | 82 | 1009.9 |
| 20260508051017 | 53 | 315 | 2.0 | 4.0 | 0.00 | 0.01 | 0.00 | 81 | 1009.8 |
| 20260508050037 | 53 | 315 | 2.0 | 4.0 | 0.00 | 0.01 | 0.00 | 81 | 1009.8 |
| 20260508045017 | 52 | 315 | 2.0 | 6.0 | 0.00 | 0.01 | 0.00 | 81 | 1009.8 |
| 20260508044017 | 52 | 315 | 3.0 | 8.0 | 0.00 | 0.01 | 0.00 | 80 | 1009.7 |
| 20260508043017 | 52 | 315 | 2.0 | 5.0 | 0.00 | 0.01 | 0.00 | 80 | 1009.6 |
| 20260508042017 | 52 | 315 | 2.0 | 6.0 | 0.00 | 0.01 | 0.00 | 80 | 1009.7 |
| 20260508041017 | 52 | 315 | 3.0 | 8.0 | 0.00 | 0.01 | 0.00 | 80 | 1009.8 |
| 20260508040017 | 52 | 315 | 2.0 | 6.0 | 0.00 | 0.01 | 0.01 | 79 | 1009.8 |
| 20260508035015 | 52 | 315 | 3.0 | 6.0 | 0.00 | 0.01 | 0.01 | 79 | 1009.7 |
| 20260508034015 | 53 | 315 | 3.0 | 6.0 | 0.00 | 0.01 | 0.01 | 78 | 1009.6 |
| 20260508033016 | 53 | 315 | 3.0 | 8.0 | 0.00 | 0.01 | 0.01 | 78 | 1009.6 |
| 20260508032016 | 53 | 315 | 4.0 | 9.0 | 0.00 | 0.01 | 0.01 | 78 | 1009.6 |
| 20260508031015 | 53 | 315 | 5.0 | 11.0 | 0.00 | 0.01 | 0.01 | 78 | 1009.7 |
| 20260508030036 | 53 | 315 | 4.0 | 14.0 | 0.00 | 0.01 | 0.01 | 78 | 1009.6 |
| 20260508025016 | 53 | 315 | 6.0 | 11.0 | 0.00 | 0.01 | 0.01 | 79 | 1009.7 |
| 20260508024015 | 52 | 315 | 5.0 | 12.0 | 0.00 | 0.01 | 0.01 | 81 | 1009.7 |
| 20260508023015 | 51 | 315 | 3.0 | 6.0 | 0.00 | 0.01 | 0.01 | 82 | 1009.6 |
| 20260508022015 | 51 | 315 | 2.0 | 4.0 | 0.00 | 0.01 | 0.01 | 83 | 1009.6 |
| 20260508021016 | 50 | 315 | 1.0 | 4.0 | 0.00 | 0.01 | 0.01 | 82 | 1009.5 |
| 20260508020015 | 50 | 315 | 1.0 | 3.0 | 0.00 | 0.01 | 0.01 | 79 | 1009.2 |
| 20260508015015 | 50 | 0.0 | 1.0 | 0.00 | 0.01 | 0.01 | 77 | 1009.1 | |
| 20260508014015 | 51 | 315 | 1.0 | 2.0 | 0.00 | 0.01 | 0.01 | 75 | 1009.1 |
| 20260508013015 | 52 | 0.0 | 1.0 | 0.00 | 0.01 | 0.01 | 73 | 1008.9 | |
| 20260508012016 | 52 | 0.0 | 0.0 | 0.00 | 0.01 | 0.01 | 72 | 1008.8 | |
| 20260508011037 | 53 | 0.0 | 2.0 | 0.00 | 0.01 | 0.01 | 71 | 1008.6 | |
| 20260508010015 | 54 | 0.0 | 0.0 | 0.00 | 0.01 | 0.01 | 69 | 1008.5 | |
| 20260508005017 | 54 | 0.0 | 1.0 | 0.00 | 0.01 | 0.01 | 68 | 1008.4 | |
| 20260508004017 | 55 | 0.0 | 0.0 | 0.00 | 0.01 | 0.01 | 63 | 1008.3 | |
| 20260508003017 | 57 | 0.0 | 0.0 | 0.00 | 0.01 | 0.01 | 61 | 1008.3 | |
| 20260508002018 | 58 | 0.0 | 0.0 | 0.00 | 0.01 | 0.01 | 58 | 1008.3 | |
| 20260508001017 | 60 | 0.0 | 0.0 | 0.00 | 0.01 | 0.01 | 53 | 1008.3 | |
| 20260508000038 | 61 | 0.0 | 1.0 | 0.00 | 0.01 | 0.01 | 50 | 1008.2 | |
| 20260507235017 | 62 | 0.0 | 2.0 | 0.00 | 0.01 | 0.01 | 47 | 1008.2 | |
| 20260507234017 | 63 | 23 | 1.0 | 4.0 | 0.00 | 0.01 | 0.01 | 45 | 1008.1 |
| 20260507233017 | 64 | 0.0 | 2.0 | 0.00 | 0.01 | 0.01 | 41 | 1008.1 | |
| 20260507232017 | 65 | 315 | 1.0 | 3.0 | 0.00 | 0.01 | 0.01 | 39 | 1008.0 |
| 20260507231018 | 65 | 0.0 | 3.0 | 0.00 | 0.01 | 0.01 | 40 | 1007.9 | |
| 20260507230017 | 66 | 45 | 1.0 | 2.0 | 0.00 | 0.01 | 0.01 | 39 | 1007.8 |
| 20260507225018 | 66 | 315 | 1.0 | 2.0 | 0.00 | 0.01 | 0.01 | 41 | 1007.7 |
| 20260507224017 | 66 | 90 | 2.0 | 4.0 | 0.00 | 0.01 | 0.01 | 40 | 1007.6 |
| 20260507223017 | 67 | 293 | 2.0 | 4.0 | 0.00 | 0.01 | 0.01 | 40 | 1007.5 |
| 20260507222018 | 67 | 0 | 1.0 | 3.0 | 0.00 | 0.01 | 0.01 | 41 | 1007.7 |
| 20260507221017 | 67 | 45 | 1.0 | 4.0 | 0.00 | 0.01 | 0.01 | 40 | 1007.6 |
| 20260507220017 | 67 | 293 | 2.0 | 5.0 | 0.00 | 0.01 | 0.01 | 40 | 1007.8 |
| 20260507215017 | 68 | 338 | 2.0 | 6.0 | 0.00 | 0.01 | 0.01 | 39 | 1007.8 |
| 20260507214017 | 68 | 90 | 2.0 | 4.0 | 0.00 | 0.01 | 0.01 | 40 | 1007.9 |
| 20260507213017 | 68 | 293 | 2.0 | 6.0 | 0.00 | 0.01 | 0.01 | 43 | 1007.9 |
| 20260507212017 | 67 | 68 | 3.0 | 8.0 | 0.00 | 0.01 | 0.01 | 43 | 1007.8 |
| 20260507211017 | 67 | 90 | 1.0 | 4.0 | 0.00 | 0.01 | 0.01 | 42 | 1007.9 |
| 20260507210016 | 67 | 23 | 1.0 | 2.0 | 0.00 | 0.01 | 0.01 | 44 | 1007.8 |
| 20260507205017 | 66 | 90 | 2.0 | 7.0 | 0.00 | 0.01 | 0.01 | 44 | 1007.8 |
| 20260507204017 | 65 | 315 | 2.0 | 5.0 | 0.00 | 0.01 | 0.01 | 46 | 1007.7 |
| 20260507203017 | 64 | 315 | 2.0 | 4.0 | 0.00 | 0.01 | 0.01 | 47 | 1007.6 |
| 20260507202017 | 65 | 315 | 1.0 | 4.0 | 0.00 | 0.01 | 0.01 | 47 | 1007.6 |
| 20260507201037 | 65 | 0 | 1.0 | 4.0 | 0.00 | 0.01 | 0.01 | 45 | 1007.8 |
| 20260507200017 | 66 | 0 | 2.0 | 6.0 | 0.00 | 0.01 | 0.01 | 46 | 1007.9 |
| 20260507195017 | 66 | 68 | 2.0 | 6.0 | 0.00 | 0.01 | 0.01 | 45 | 1007.9 |
| 20260507194017 | 66 | 113 | 3.0 | 7.0 | 0.00 | 0.01 | 0.01 | 44 | 1008.0 |
| 20260507193017 | 66 | 23 | 3.0 | 9.0 | 0.00 | 0.01 | 0.01 | 45 | 1008.1 |
| 20260507192017 | 65 | 68 | 3.0 | 6.0 | 0.00 | 0.01 | 0.01 | 47 | 1008.2 |
| 20260507191018 | 66 | 45 | 1.0 | 3.0 | 0.00 | 0.01 | 0.01 | 44 | 1008.3 |
| 20260507190017 | 66 | 68 | 3.0 | 9.0 | 0.00 | 0.01 | 0.01 | 47 | 1008.7 |
| 20260507185017 | 66 | 90 | 3.0 | 7.0 | 0.00 | 0.01 | 0.01 | 46 | 1009.0 |
| 20260507184016 | 66 | 293 | 3.0 | 8.0 | 0.00 | 0.01 | 0.01 | 48 | 1009.0 |
| 20260507183017 | 65 | 315 | 1.0 | 3.0 | 0.00 | 0.01 | 0.01 | 52 | 1009.1 |
| 20260507182017 | 65 | 90 | 3.0 | 5.0 | 0.00 | 0.01 | 0.01 | 46 | 1008.9 |
| 20260507181017 | 65 | 45 | 3.0 | 7.0 | 0.00 | 0.01 | 0.01 | 49 | 1008.9 |
| 20260507180016 | 64 | 23 | 3.0 | 9.0 | 0.00 | 0.01 | 0.01 | 48 | 1009.0 |
| 20260507175018 | 64 | 23 | 3.0 | 7.0 | 0.00 | 0.01 | 0.01 | 48 | 1009.4 |
| 20260507174016 | 64 | 90 | 3.0 | 6.0 | 0.00 | 0.01 | 0.01 | 50 | 1009.4 |
| 20260507173037 | 63 | 90 | 2.0 | 6.0 | 0.00 | 0.01 | 0.01 | 54 | 1009.8 |
| 20260507172016 | 63 | 338 | 2.0 | 6.0 | 0.00 | 0.01 | 0.01 | 55 | 1010.0 |
| 20260507171037 | 63 | 135 | 3.0 | 8.0 | 0.00 | 0.01 | 0.01 | 52 | 1010.1 |
| 20260507170016 | 63 | 135 | 2.0 | 5.0 | 0.00 | 0.01 | 0.01 | 54 | 1010.2 |
| 20260507165017 | 62 | 90 | 3.0 | 8.0 | 0.00 | 0.01 | 0.01 | 54 | 1010.3 |
| 20260507164016 | 62 | 315 | 2.0 | 4.0 | 0.00 | 0.01 | 0.01 | 59 | 1010.6 |
| 20260507163016 | 60 | 23 | 1.0 | 3.0 | 0.00 | 0.01 | 0.01 | 62 | 1010.7 |
| 20260507162016 | 60 | 113 | 1.0 | 5.0 | 0.00 | 0.01 | 0.01 | 62 | 1010.8 |
| 20260507161036 | 59 | 90 | 1.0 | 2.0 | 0.00 | 0.01 | 0.01 | 65 | 1011.0 |
| 20260507160016 | 59 | 90 | 2.0 | 5.0 | 0.00 | 0.01 | 0.01 | 64 | 1011.0 |
| 20260507155016 | 59 | 315 | 2.0 | 5.0 | 0.00 | 0.01 | 0.01 | 64 | 1011.0 |
| 20260507154016 | 59 | 90 | 2.0 | 6.0 | 0.00 | 0.01 | 0.01 | 64 | 1011.1 |
| 20260507153016 | 59 | 68 | 3.0 | 6.0 | 0.00 | 0.01 | 0.01 | 62 | 1011.3 |
| 20260507152017 | 59 | 23 | 3.0 | 9.0 | 0.00 | 0.01 | 0.01 | 62 | 1011.3 |
| 20260507151016 | 58 | 315 | 2.0 | 5.0 | 0.00 | 0.01 | 0.01 | 64 | 1011.5 |
| 20260507150036 | 58 | 338 | 2.0 | 8.0 | 0.00 | 0.01 | 0.01 | 63 | 1011.6 |
| 20260507145016 | 58 | 0 | 3.0 | 8.0 | 0.00 | 0.01 | 0.01 | 64 | 1011.5 |
| 20260507144017 | 58 | 90 | 2.0 | 6.0 | 0.00 | 0.01 | 0.01 | 68 | 1011.8 |
| 20260507143017 | 58 | 45 | 3.0 | 8.0 | 0.00 | 0.01 | 0.01 | 70 | 1011.8 |
| 20260507142016 | 57 | 45 | 2.0 | 7.0 | 0.00 | 0.01 | 0.01 | 74 | 1011.7 |
| 20260507141017 | 57 | 315 | 2.0 | 8.0 | 0.00 | 0.01 | 0.01 | 75 | 1011.8 |
| 20260507140016 | 56 | 315 | 3.0 | 6.0 | 0.00 | 0.01 | 0.01 | 76 | 1011.9 |
| 20260507135016 | 55 | 315 | 2.0 | 4.0 | 0.00 | 0.01 | 0.01 | 80 | 1012.0 |
| 20260507134016 | 55 | 315 | 2.0 | 6.0 | 0.00 | 0.01 | 0.01 | 81 | 1012.1 |
| 20260507133058 | 55 | 315 | 1.0 | 4.0 | 0.00 | 0.01 | 0.01 | 82 | 1012.1 |
| 20260507132016 | 54 | 315 | 2.0 | 6.0 | 0.00 | 0.01 | 0.01 | 82 | 1012.0 |
| 20260507131016 | 54 | 0 | 1.0 | 4.0 | 0.00 | 0.01 | 0.01 | 83 | 1012.0 |
| 20260507130016 | 54 | 23 | 2.0 | 7.0 | 0.00 | 0.01 | 0.01 | 85 | 1012.0 |
| 20260507125016 | 54 | 293 | 2.0 | 8.0 | 0.00 | 0.01 | 0.01 | 88 | 1012.1 |
| 20260507124016 | 53 | 315 | 2.0 | 4.0 | 0.00 | 0.01 | 0.01 | 90 | 1012.0 |
| 20260507123036 | 53 | 293 | 1.0 | 2.0 | 0.00 | 0.01 | 0.01 | 90 | 1011.8 |
| 20260507122016 | 53 | 293 | 1.0 | 3.0 | 0.00 | 0.01 | 0.01 | 91 | 1011.6 |
| 20260507121017 | 52 | 293 | 1.0 | 2.0 | 0.00 | 0.01 | 0.01 | 91 | 1011.7 |
| 20260507120015 | 52 | 0.0 | 1.0 | 0.00 | 0.01 | 0.01 | 91 | 1011.7 | |
| 20260507115036 | 52 | 315 | 1.0 | 3.0 | 0.00 | 0.01 | 0.01 | 91 | 1011.6 |
| 20260507114016 | 52 | 0.0 | 0.0 | 0.00 | 0.01 | 0.01 | 91 | 1011.6 |